User: anonymous   Login
Location: Theydon Bois
(51.6750°N, 0.1050°E)
Time: 17:00:38
(UTC+00:00)
Language:

Cosmos 773 Rocket - Orbit

View from above orbital plane
View from above orbital plane
View from above satellite
View from above satellite

Ground track
Ground track

The orbit data is extracted from the following two-line orbital elements,

1 08344U 75094B   17348.93873765 -.00000041  00000-0 -45964-5 0  9995
2 08344  74.0543 152.5595 0021726   5.7445 354.3954 14.39110054211688
Epoch (UTC): 14 December 2017 22:31:46
Eccentricity: 0.0021726
inclination: 74.0543°
perigee height: 746 km
apogee height: 777 km
right ascension of ascending node: 152.5595°
argument of perigee: 5.7445°
revolutions per day: 14.39110054
mean anomaly at epoch: 354.3954°
orbit number at epoch: 21168

The dashed part of the orbit path shows where the satellite is in the earth's shadow,  

DLR